Temperature
18 18 18 18 18 17 17 17 17 17 17 17 17 17 17 17 17 17 17 18 18 18 18 18 18 18 18 18 17 17 17 17 17 17 17 17 17 17 17 17 17 17 17
17 18 18 17 17 17 17 17 17 17 17 17 17 17 17 17 17 17 17 17 18 18 18 18 18 18 18 18 18 17 17 17 17 17 17 17 17 17 17 17 17 17 17
17 17 17 17 17 17 17 17 17 17 17 17 17 17 17 17 17 17 17 17 17 18 18 18 18 18 18 18 18 17 17 17 17 17 17 17 17 17 17 17 17 17 17
16 17 17 17 17 17 17 17 17 17 17 17 17 17 17 17 17 17 17 17 17 17 17 18 18 18 18 18 18 17 17 17 17 17 17 17 17 17 17 17 17 17 17
15 16 17 17 17 17 17 17 17 17 17 17 17 17 17 17 17 17 17 17 17 17 17 17 17 18 18 18 18 18 17 17 17 17 17 17 17 17 17 17 17 17 16
15 16 16 16 16 17 17 17 17 16 17 17 17 17 17 17 17 17 17 17 17 17 17 17 17 17 17 17 17 18 18 18 18 17 17 17 17 17 17 17 17 17 17
15 15 16 16 16 16 16 16 16 16 16 16 17 17 17 17 17 17 17 17 17 17 17 17 17 17 17 17 18 18 18 18 18 18 17 17 17 17 17 17 17 17 17
15 15 16 16 16 16 16 16 16 16 17 16 16 17 18 18 17 17 17 17 17 17 17 17 17 16 17 17 17 17 18 18 18 18 17 17 17 17 17 17 17 17 17
15 16 16 16 16 16 16 16 16 16 16 16 16 17 19 20 20 18 17 17 16 17 17 17 17 16 16 17 17 17 17 18 18 17 17 17 17 17 17 17 17 17 17
15 15 15 15 16 16 16 16 15 15 15 16 16 16 16 18 18 19 17 17 16 16 17 17 17 16 16 16 16 17 17 17 18 17 17 17 17 17 17 17 17 17 17
14 14 14 15 15 15 15 15 15 15 15 15 16 16 16 16 16 17 19 18 17 16 16 16 16 16 16 16 16 16 17 17 17 17 17 17 17 17 17 17 17 17 17
13 13 13 14 14 14 14 15 15 15 15 15 15 16 16 16 17 17 18 17 17 17 16 16 16 16 16 16 16 16 17 17 17 17 17 17 17 17 17 17 17 17 17
13 13 13 13 13 13 13 14 14 14 15 15 15 15 16 16 17 17 17 17 17 17 16 16 16 16 16 16 16 17 17 17 17 18 17 17 17 17 17 17 17 17 17
12 12 12 12 12 12 12 13 13 13 14 14 14 15 15 15 16 16 16 17 17 17 17 17 16 15 15 16 16 17 16 17 17 17 17 17 17 17 17 17 17 16 16
11 11 11 11 11 11 12 12 12 12 13 13 14 14 14 15 15 15 15 16 17 18 18 16 16 15 15 15 16 16 16 17 17 17 17 17 17 17 17 17 16 16 16
10 10 11 11 11 11 11 11 11 11 12 12 13 13 14 14 14 14 15 15 15 16 18 17 15 15 14 15 15 16 16 16 17 17 17 17 17 17 17 16 16 16 16
9 9 10 10 10 10 10 10 11 11 11 11 12 12 13 13 14 14 14 14 14 15 16 16 15 14 14 14 15 15 15 16 16 16 16 17 17 16 16 16 16 16 16
8 9 9 9 10 10 10 10 10 10 10 10 11 11 12 12 13 13 13 14 14 14 15 15 15 14 14 14 14 14 15 15 15 16 16 16 16 16 16 16 15 15 15
7 8 8 9 9 9 10 10 10 10 10 10 10 10 11 11 12 12 13 13 13 14 14 14 14 14 14 14 14 14 14 14 14 14 15 15 15 15 15 15 15 15 15
7 7 7 8 8 9 9 9 10 10 10 10 10 10 10 10 11 11 12 13 13 13 13 14 14 14 14 13 13 13 13 13 13 13 13 13 14 14 14 14 14 14 14
6 6 7 7 8 8 9 9 9 10 9 9 9 9 10 10 10 11 11 11 12 13 13 13 14 14 14 13 13 12 12 12 12 12 12 12 12 12 13 13 13 13 13
6 6 6 6 7 8 9 9 9 9 9 9 9 9 9 9 10 10 10 11 11 12 12 13 13 14 14 13 13 12 12 12 11 11 12 12 11 11 11 12 12 12 12
5 5 5 6 6 7 8 8 9 9 9 9 9 9 9 10 9 9 10 10 10 11 11 12 13 13 13 13 13 12 12 12 12 11 11 11 11 11 11 11 11 11 12
5 5 5 5 6 6 7 8 8 8 9 9 9 9 9 9 9 9 9 10 10 10 11 11 12 12 13 13 13 13 12 12 11 11 11 10 10 10 10 10 10 10 11
4 5 5 5 5 6 7 7 8 8 8 8 8 9 9 9 9 9 9 9 10 10 10 11 11 12 12 12 12 12 12 11 11 10 10 10 9 9 9 9 9 9 10
4 4 4 5 5 5 6 7 7 7 8 8 8 8 8 9 9 9 9 9 9 10 10 10 11 11 12 12 12 12 12 11 11 9 9 10 9 9 7 7 8 8 8
Wind_Speed
11 11 9 10 12 12 11 11 13 14 14 14 15 15 14 15 16 16 13 16 19 20 20 20 20 21 21 22 25 27 28 27 27 27 26 25 24 23 22 21 20 19 18
11 11 11 11 11 12 12 11 13 13 13 12 13 14 14 15 15 17 17 16 19 20 20 20 20 21 22 22 23 25 27 28 28 28 28 28 27 25 24 24 23 22 21
12 10 9 10 10 11 11 11 12 11 12 12 14 15 12 13 14 16 18 16 16 20 22 21 20 21 21 21 21 22 24 26 27 28 29 29 29 28 27 26 25 24 23
13 9 8 9 8 8 8 10 11 11 11 11 11 11 11 12 15 16 16 16 15 15 19 23 21 21 21 22 21 22 23 24 25 27 29 30 29 29 29 28 27 26 26
11 7 7 6 6 7 8 10 9 9 10 11 11 10 10 11 13 14 15 15 16 15 15 17 22 20 20 21 22 22 22 24 24 26 27 29 30 30 30 29 29 28 27
7 5 5 5 7 7 7 7 8 8 8 9 10 9 9 10 10 12 13 13 13 15 16 14 15 17 21 21 21 22 22 24 24 25 26 28 29 30 30 30 30 29 28
6 5 5 5 7 7 7 8 8 9 8 7 7 8 9 11 11 10 11 11 12 13 13 13 13 13 14 21 21 20 21 23 24 25 26 27 28 29 30 30 30 30 30
7 5 6 6 7 6 7 8 8 7 7 6 7 7 7 8 9 11 10 10 11 10 11 12 12 11 12 12 16 22 21 22 24 25 26 27 28 29 29 30 30 30 30
8 6 6 6 6 7 7 7 8 9 8 7 8 7 6 6 4 7 9 9 8 8 9 9 10 11 12 12 11 18 21 21 22 24 26 27 27 28 28 29 30 30 30
8 7 7 6 6 6 7 8 9 8 9 9 7 8 9 6 5 4 7 8 9 8 9 7 9 10 11 11 12 9 13 17 19 21 24 26 27 27 27 28 29 29 29
6 7 6 6 6 6 7 8 7 9 9 10 8 8 9 7 9 7 5 5 7 8 8 8 8 8 9 11 10 10 11 13 15 17 19 22 24 26 27 27 28 28 28
5 5 5 5 5 6 6 7 8 10 10 10 9 9 8 7 8 8 8 7 6 6 6 6 7 7 7 8 8 1 3 9 13 15 17 19 22 24 26 27 27 27 28
8 6 5 4 5 5 6 7 8 10 11 11 11 10 9 9 7 7 8 7 6 5 5 6 5 4 3 3 3 3 5 8 11 13 14 16 18 21 24 25 26 27 27
11 9 8 7 6 6 6 6 7 9 9 11 13 12 10 10 9 9 8 7 7 7 7 5 4 4 2 1 2 5 4 3 6 10 12 13 15 18 21 23 24 24 24
12 13 11 10 9 8 7 7 7 8 8 10 12 13 12 11 10 10 9 9 8 7 6 6 5 5 2 2 2 2 2 5 1 4 8 10 12 14 17 19 19 19 18
15 15 15 14 13 11 9 8 8 8 8 9 9 11 12 12 11 11 10 10 9 9 6 5 5 4 2 1 4 3 4 6 7 4 4 6 8 10 12 14 14 14 14
16 16 16 16 15 14 13 11 11 9 9 9 9 11 12 13 11 11 11 11 10 10 9 6 6 4 3 3 4 4 5 5 8 10 9 9 11 12 13 14 14 14 14
16 17 17 17 17 17 16 15 14 12 11 11 10 9 10 10 13 12 11 13 11 11 10 9 7 6 6 6 6 5 5 7 9 13 14 14 15 15 16 16 16 16 16
17 17 17 18 18 18 18 17 16 15 13 13 12 12 11 9 11 10 11 12 11 11 11 9 8 6 6 7 7 7 8 7 9 12 16 16 18 18 18 19 19 19 19
18 18 18 18 18 19 19 18 17 16 15 14 13 12 11 10 10 9 9 10 10 11 11 10 9 8 8 9 8 7 6 6 7 8 12 14 18 19 19 19 19 20 21
18 18 18 18 18 18 18 18 18 17 17 15 14 13 13 12 11 8 7 8 8 9 10 11 10 9 9 10 9 7 8 7 6 5 8 8 9 10 12 16 17 19 21
18 18 18 18 18 18 16 15 16 17 16 16 15 14 13 13 13 13 12 9 9 10 10 10 10 11 11 11 10 10 10 9 5 4 6 7 7 8 8 11 16 20 22
18 18 18 18 18 19 14 14 16 17 16 15 15 13 12 12 14 13 13 12 11 12 11 9 10 11 11 11 13 14 13 11 7 8 8 7 6 9 9 14 17 20 22
17 16 16 17 17 17 15 15 15 17 17 16 15 14 14 12 12 12 12 11 11 12 13 11 11 11 9 9 14 14 13 10 11 7 5 6 6 8 10 12 16 19 21
16 16 15 16 15 15 14 15 15 15 15 16 15 15 14 14 12 11 11 11 11 10 12 13 12 9 6 6 10 12 14 13 9 5 3 5 8 9 9 9 12 16 19
15 14 14 13 13 13 12 15 16 13 14 13 12 13 13 12 10 13 12 12 11 11 10 12 12 10 9 10 14 16 16 15 11 5 5 6 11 7 6 6 8 12 14
Wind_Direction
240 237 237 238 239 238 234 235 241 240 237 235 234 233 233 233 237 238 233 214 217 224 230 232 233 233 230 226 221 219 218 218 219 217 214 213 213 212 209 207 206 205 205
245 241 239 240 241 240 243 245 246 248 245 241 238 238 235 232 233 238 239 228 219 223 229 233 234 232 230 227 224 222 221 221 220 218 217 215 214 214 213 210 208 207 207
243 238 240 243 245 244 242 243 247 249 248 244 240 238 234 233 232 232 236 237 231 221 223 228 230 229 227 227 226 225 224 223 222 220 219 216 214 213 214 213 210 209 208
244 239 237 246 251 252 246 242 242 244 242 242 242 240 236 235 235 233 232 231 233 235 221 217 222 225 226 226 226 226 223 221 222 222 221 218 215 214 213 214 213 211 209
254 240 238 249 258 254 249 250 243 242 245 243 240 234 233 234 237 236 233 233 230 232 235 210 210 220 224 228 228 227 223 218 219 221 221 220 217 214 212 213 214 213 211
279 269 253 256 258 253 250 247 251 243 247 247 249 241 228 231 231 234 235 232 230 229 232 232 218 218 219 226 229 228 223 219 217 218 220 221 220 217 213 212 213 214 213
308 283 269 263 259 253 250 252 247 240 240 238 243 243 233 228 231 232 234 240 234 231 234 232 234 236 217 214 221 226 224 222 219 218 219 219 219 219 216 213 213 214 215
336 311 292 276 267 266 255 253 246 256 248 227 241 247 241 225 219 227 226 226 236 234 231 227 229 231 242 232 215 213 222 225 223 220 219 217 217 218 217 215 213 214 215
349 346 324 305 286 270 257 249 244 244 252 239 235 248 251 244 220 199 218 225 224 230 233 229 228 229 230 238 237 208 212 221 224 223 220 216 215 215 216 217 216 215 216
352 353 345 332 309 285 268 254 242 246 248 248 229 238 260 296 270 219 195 204 210 220 234 235 236 230 232 237 236 243 210 220 226 227 223 217 214 214 214 215 218 217 218
341 349 348 339 326 305 290 273 261 247 243 247 244 229 227 231 242 263 240 200 204 215 221 231 243 245 240 240 242 237 203 218 227 229 226 221 217 215 213 214 217 217 218
310 323 327 331 319 313 304 286 268 249 246 248 251 243 231 227 224 231 240 234 231 223 219 236 241 238 238 244 241 45 210 229 231 228 225 222 218 215 214 214 215 216 216
292 288 293 295 300 300 296 292 280 269 252 243 239 241 241 241 243 235 239 238 237 235 223 225 213 222 227 245 255 11 241 233 232 225 223 221 219 217 215 213 214 215 216
286 286 271 262 259 265 275 278 280 274 264 252 243 240 242 240 236 234 235 235 231 227 213 209 177 170 169 205 32 291 235 194 230 224 221 222 221 219 215 212 211 212 213
280 275 267 259 253 248 251 259 264 271 274 264 253 242 237 238 234 232 230 232 237 235 209 182 193 154 164 108 31 355 31 67 76 214 214 214 213 212 209 205 204 203 203
281 276 269 263 256 247 238 238 249 253 260 266 265 259 246 240 234 228 225 225 231 245 243 178 181 159 118 133 92 71 77 91 74 90 147 172 180 184 185 184 183 181 180
281 274 267 261 256 251 243 236 242 242 245 255 261 260 253 248 241 231 224 221 220 225 231 212 188 170 177 175 128 104 83 78 81 80 96 113 127 135 142 145 147 149 151
279 273 267 261 256 252 245 239 238 239 240 243 247 253 257 251 243 239 231 223 218 217 222 221 200 192 183 163 137 118 99 82 82 82 89 96 104 111 116 120 123 125 127
281 274 268 261 255 252 248 241 238 237 237 239 239 240 245 247 247 240 237 231 222 214 218 218 207 192 176 155 138 117 103 96 90 91 89 91 96 100 104 108 111 113 113
285 277 269 262 255 250 246 242 237 235 235 235 236 236 235 235 240 242 239 239 232 220 212 215 207 192 181 166 157 146 130 112 97 90 86 91 94 94 98 103 106 108 108
286 280 272 263 256 249 244 239 236 234 233 234 232 231 230 224 227 232 238 240 240 226 214 212 210 201 188 174 173 163 144 123 96 107 107 100 101 99 99 101 105 109 108
287 283 274 266 258 251 240 227 229 235 232 232 232 230 227 215 215 218 228 235 241 236 222 216 216 210 199 188 175 161 151 149 133 130 113 98 101 103 103 102 108 111 111
290 285 277 269 261 253 243 219 216 232 233 231 230 228 229 218 203 213 213 220 233 241 243 236 234 230 209 193 177 171 172 170 146 146 124 100 96 95 95 101 110 112 113
291 286 279 271 264 253 230 212 207 225 232 229 229 227 227 229 211 208 209 209 216 222 225 229 239 243 235 201 186 178 160 124 114 123 119 110 108 103 103 105 106 112 115
291 286 277 270 263 252 225 202 200 222 225 227 227 226 223 223 204 193 216 217 216 219 220 223 234 255 271 203 176 160 148 143 136 130 115 118 127 111 103 109 108 111 116
291 288 280 271 261 248 219 196 200 218 221 222 221 224 222 227 195 187 216 222 222 219 211 209 217 227 224 188 172 175 167 161 150 143 156 134 146 134 118 123 133 134 125
Height
1521 1522 1522 1523 1524 1526 1527 1527 1529 1530 1531 1532 1533 1534 1534 1536 1537 1540 1541 1541 1542 1545 1546 1548 1550 1552 1554 1556 1558 1560 1562 1564 1566 1569 1571 1573 1575 1577 1579 1581 1583 1584 1586
1515 1516 1516 1517 1518 1519 1520 1521 1523 1524 1525 1526 1527 1528 1529 1530 1531 1533 1535 1536 1537 1539 1541 1543 1544 1546 1549 1551 1553 1555 1558 1560 1562 1564 1566 1569 1571 1573 1576 1578 1580 1582 1584
1507 1508 1509 1511 1512 1513 1514 1515 1516 1517 1518 1520 1520 1521 1522 1523 1525 1526 1529 1530 1532 1533 1535 1537 1539 1541 1544 1546 1548 1550 1552 1555 1557 1559 1562 1564 1566 1569 1571 1574 1577 1579 1581
1500 1502 1503 1504 1506 1507 1508 1509 1510 1511 1512 1513 1514 1515 1516 1517 1519 1520 1522 1524 1526 1528 1530 1531 1533 1536 1538 1540 1543 1545 1547 1550 1552 1554 1557 1560 1562 1564 1567 1570 1573 1575 1578
1493 1494 1496 1499 1500 1502 1503 1504 1505 1506 1507 1508 1509 1509 1510 1511 1513 1515 1517 1519 1521 1522 1525 1526 1527 1529 1532 1534 1536 1539 1542 1544 1547 1549 1552 1555 1557 1560 1562 1565 1568 1571 1574
1488 1488 1491 1494 1496 1498 1498 1499 1500 1501 1502 1503 1504 1505 1505 1507 1508 1510 1512 1514 1515 1517 1519 1521 1522 1524 1525 1528 1530 1533 1536 1539 1541 1544 1546 1549 1552 1555 1557 1560 1563 1566 1569
1486 1486 1488 1490 1492 1494 1494 1496 1497 1498 1499 1500 1501 1502 1502 1503 1504 1505 1507 1509 1511 1512 1514 1516 1517 1519 1521 1522 1524 1527 1529 1532 1535 1538 1541 1544 1546 1549 1552 1555 1557 1560 1563
1486 1485 1486 1487 1488 1490 1490 1493 1494 1495 1496 1497 1499 1499 1499 1501 1500 1501 1502 1503 1505 1508 1509 1511 1512 1514 1516 1518 1519 1520 1523 1526 1529 1531 1535 1538 1541 1544 1547 1550 1552 1555 1558
1485 1484 1484 1484 1485 1486 1489 1490 1491 1492 1494 1495 1496 1497 1497 1496 1496 1497 1498 1499 1500 1503 1505 1506 1508 1509 1510 1512 1515 1515 1517 1520 1522 1525 1529 1532 1535 1538 1541 1544 1547 1550 1553
1484 1482 1482 1482 1483 1484 1485 1486 1488 1489 1490 1492 1492 1493 1495 1494 1495 1494 1495 1495 1497 1498 1501 1502 1504 1505 1506 1507 1509 1510 1512 1514 1517 1519 1522 1525 1528 1531 1535 1538 1542 1545 1548
1482 1481 1479 1479 1479 1480 1481 1482 1483 1484 1486 1488 1490 1490 1491 1491 1493 1494 1493 1494 1495 1495 1497 1498 1499 1501 1502 1503 1504 1506 1507 1509 1511 1514 1517 1520 1523 1526 1529 1532 1536 1539 1542
1481 1479 1478 1476 1476 1476 1476 1477 1478 1480 1481 1483 1485 1487 1488 1489 1489 1490 1491 1492 1492 1493 1493 1494 1495 1496 1497 1498 1500 1500 1502 1504 1506 1509 1511 1514 1517 1520 1524 1527 1530 1533 1537
1479 1477 1475 1473 1473 1472 1472 1472 1473 1474 1476 1477 1479 1481 1483 1485 1486 1487 1488 1488 1489 1490 1490 1491 1491 1491 1492 1493 1494 1495 1497 1499 1502 1504 1507 1509 1512 1515 1518 1521 1525 1528 1531
1475 1473 1471 1470 1469 1468 1468 1467 1467 1468 1469 1471 1473 1475 1477 1479 1481 1483 1484 1485 1486 1486 1487 1488 1488 1487 1488 1489 1490 1491 1493 1494 1497 1499 1502 1505 1508 1511 1513 1516 1519 1522 1525
1469 1467 1466 1465 1464 1463 1462 1462 1462 1462 1463 1464 1466 1468 1471 1474 1476 1477 1479 1481 1483 1482 1483 1484 1485 1484 1485 1485 1486 1487 1489 1490 1493 1495 1498 1500 1503 1506 1509 1512 1514 1517 1520
1461 1460 1460 1459 1458 1458 1457 1456 1456 1456 1457 1457 1459 1461 1464 1467 1470 1472 1473 1475 1478 1480 1480 1481 1482 1483 1482 1483 1483 1484 1486 1487 1489 1492 1494 1496 1499 1502 1504 1507 1510 1512 1515
1453 1452 1452 1451 1451 1451 1451 1451 1451 1451 1451 1451 1452 1453 1455 1459 1463 1465 1468 1470 1472 1474 1476 1478 1479 1479 1479 1480 1481 1482 1483 1484 1486 1488 1491 1493 1495 1498 1501 1503 1506 1509 1511
1444 1443 1443 1443 1443 1444 1444 1444 1444 1445 1445 1445 1445 1446 1448 1451 1454 1458 1461 1464 1466 1468 1471 1474 1475 1476 1476 1477 1479 1480 1481 1482 1483 1485 1488 1490 1492 1495 1497 1500 1503 1505 1508
1435 1434 1433 1433 1434 1435 1436 1436 1437 1438 1439 1439 1440 1440 1441 1443 1445 1449 1453 1457 1460 1462 1465 1468 1471 1473 1474 1474 1476 1477 1479 1480 1481 1483 1485 1488 1490 1492 1495 1498 1501 1503 1506
1426 1424 1423 1423 1424 1425 1426 1428 1429 1431 1432 1433 1433 1434 1435 1436 1438 1441 1444 1449 1453 1456 1459 1462 1466 1468 1470 1471 1473 1474 1476 1479 1480 1482 1484 1486 1489 1491 1494 1497 1499 1502 1505
1417 1415 1413 1413 1413 1415 1416 1418 1421 1423 1425 1426 1427 1428 1429 1430 1432 1434 1436 1440 1445 1449 1452 1456 1460 1463 1465 1467 1469 1471 1474 1476 1479 1482 1484 1486 1488 1491 1493 1496 1499 1502 1504
1408 1405 1403 1402 1403 1404 1406 1409 1412 1415 1417 1419 1420 1422 1423 1424 1425 1428 1430 1432 1437 1441 1445 1450 1454 1457 1460 1462 1465 1467 1470 1473 1477 1481 1483 1486 1489 1491 1494 1496 1499 1502 1504
1400 1396 1394 1393 1392 1393 1396 1399 1402 1406 1410 1412 1413 1415 1418 1419 1420 1422 1424 1427 1429 1433 1439 1443 1448 1451 1455 1458 1460 1463 1467 1471 1473 1477 1482 1484 1488 1490 1493 1496 1499 1502 1505
1391 1387 1384 1383 1382 1383 1386 1389 1393 1398 1402 1404 1407 1409 1411 1414 1416 1418 1420 1422 1424 1427 1432 1437 1441 1446 1450 1453 1456 1460 1463 1467 1471 1476 1480 1482 1486 1490 1494 1497 1500 1503 1506
1382 1378 1375 1373 1373 1374 1377 1381 1385 1390 1394 1397 1400 1403 1405 1408 1411 1413 1415 1418 1420 1422 1426 1430 1435 1440 1444 1448 1452 1455 1458 1462 1467 1472 1476 1480 1484 1489 1493 1497 1500 1504 1507
1374 1370 1367 1366 1365 1366 1369 1373 1378 1383 1387 1391 1394 1397 1400 1403 1405 1407 1410 1413 1415 1417 1421 1425 1429 1433 1438 1442 1446 1450 1453 1457 1462 1468 1472 1476 1481 1486 1493 1497 1500 1504 1507